Regional Weather Roundup
Issued by NWS Bismarck, ND

Home | Current Version | Previous Version | Text Only | Print | Product List | Glossary On
Versions: 1 2 3 4 5 6 7 8 9 10 11 12 13 14 15 16 17 18 19 20 21 22 23 24 25 26 27 28 29 30 31 32 33 34 35 36 37 38 39 40 41 42 43 44 45 46 47 48 49 50
000
ASUS43 KBIS 180220
RWRBIS

NWR BROADCAST TEXT
NATIONAL WEATHER SERVICE BISMARCK ND
900 PM CDT WED SEP 17 2014

NOTE: "FAIR" INDICATES FEW OR NO CLOUDS BELOW 12,000 FEET WITH NO
SIGNIFICANT WEATHER AND/OR OBSTRUCTIONS TO VISIBILITY.


CITY           SKY/WX    TMP DP  RH WIND       PRES   REMARKS
WILLISTON      CLEAR     62  43  49 E7        29.92R
MINOT          CLEAR     53  47  79 E8        29.98S
MINOT AFB      CLEAR     55  49  82 E10       29.98R
BISMARCK       CLEAR     56  48  74 E6        29.97R
DICKINSON      CLEAR     58  49  72 SE12      29.94S
GARRISON         N/A     59  51  75 E12       29.97R
HETTINGER ARPT CLEAR     59  51  75 E10       29.97R
JAMESTOWN      CLEAR     54  50  86 E6        30.01R
BEACH            N/A     54  48  82 SE10      29.93S
CARRINGTON     FAIR      52  52 100 E8        30.04R
CROSBY         FAIR      55  52  88 E10       29.95R
HARVEY         FAIR      52  48  87 E12       30.02R
HAZEN          FAIR      57  48  72 SE7       29.97R
LINTON         FAIR      57  48  72 SE7       29.97S
MANDAN         FAIR      59  48  67 E8        29.98R
OAKES            N/A     55  50  82 NE9       30.00R
RUGBY          FAIR      48  45  87 E12       30.02S
STANLEY        FAIR      55  52  88 E9        29.97R
TIOGA          FAIR      55  54  94 SE12      29.99R
WATFORD CITY   FAIR      55  45  67 E6        29.92R
$$

CITY           SKY/WX    TMP DP  RH WIND       PRES   REMARKS
GRAND FORKS    CLEAR     53  45  74 NE9       30.04R
GRAND FORKS AF CLEAR     52  46  78 E9        30.05R
DEVILS LAKE    CLEAR     48  39  71 E8        30.04R
FARGO          CLEAR     59  50  72 N8        30.00R
CANDO          FAIR      48  41  76 E9        30.05S
CAVALIER       FAIR      46  41  81 NE6       30.08R
GRAFTON        FAIR      48  41  76 E12       30.06R
GWINNER        CLEAR     55  48  76 N6        30.01R
LANGDON        FAIR      45  39  81 E8        30.06S
ROLLA          FAIR      45  41  87 E9        30.06S
WALHALLA       FAIR      46  43  87 NE5       30.08R
$$

CITY           SKY/WX    TMP DP  RH WIND       PRES   REMARKS
ABERDEEN       PTCLDY    54  50  86 NE6       29.99R
MOBRIDGE       MOCLDY    60  49  66 E14       29.94R
BUFFALO          N/A     62  52  69 SE12      29.88R
RAPID CITY     CLEAR     68  52  56 E13       29.95R
GLASGOW        PTCLDY    67  48  50 E14       29.80S
SIDNEY         CLEAR     63  45  51 CALM      29.91R
WOLF POINT     CLEAR     64  45  49 E8        29.84S
GLENDIVE       PTCLDY    61  48  63 E7        29.90R
MILES CITY     MOCLDY    73  50  44 SE8       29.84R
BAKER          PTCLDY    58  51  78 E8        29.93R
$$

CITY           SKY/WX    TMP DP  RH WIND       PRES   REMARKS
BILLINGS       CLOUDY    75  46  35 W13       29.89R
GREAT FALLS    CLOUDY    68  52  56 S8        29.78F
REGINA         PTCLDY    55  48  76 SE17G23   29.90R
ESTEVAN        PTCLDY    52  48  87 E15       29.96S
$$



USA.gov is the U.S. government's official web portal to all federal, state and local government web resources and services.